TimeADT,TemperatureF,Dew PointF,Humidity,Sea Level PressureIn,VisibilityMPH,Wind Direction,Wind SpeedMPH,Gust SpeedMPH,PrecipitationIn,Events,Conditions,WindDirDegrees,DateUTC
12:00 AM,33.8,30.2,87,29.76,15.0,North,10.4,-,N/A,,Overcast,10,2013-03-28 03:00:00
2:00 AM,35.6,28.4,75,29.76,15.0,North,12.7,-,N/A,,Overcast,10,2013-03-28 05:00:00
3:00 AM,35,29,71,29.76,15,North,11.5,,,,Overcast,0,2013-03-28 06:00:00
3:00 AM,35.6,28.4,75,29.76,15.0,North,12.7,-,N/A,,Overcast,10,2013-03-28 06:00:00
4:00 AM,33.8,28.4,81,29.76,15.0,North,9.2,18.4,N/A,,Overcast,360,2013-03-28 07:00:00
5:00 AM,33.8,28.4,81,29.76,15.0,NNE,10.4,-,N/A,,Overcast,20,2013-03-28 08:00:00
6:00 AM,33.8,28.4,81,29.77,15.0,North,10.4,-,N/A,,Mostly Cloudy,360,2013-03-28 09:00:00
7:00 AM,33.8,28.4,81,29.77,15.0,North,8.1,-,N/A,,Mostly Cloudy,10,2013-03-28 10:00:00
8:00 AM,33.8,28.4,81,29.79,15.0,North,9.2,-,N/A,,Mostly Cloudy,10,2013-03-28 11:00:00
9:00 AM,34,29,75,29.81,15,NNE,12.7,,,,Mostly Cloudy,20,2013-03-28 12:00:00
9:00 AM,33.8,28.4,81,29.81,15.0,NNE,13.8,-,N/A,,Mostly Cloudy,30,2013-03-28 12:00:00
10:00 AM,35.6,28.4,75,29.81,15.0,NNE,10.4,-,N/A,,Mostly Cloudy,20,2013-03-28 13:00:00
10:43 AM,35.6,28.4,75,29.82,15.0,NNE,13.8,-,N/A,,Mostly Cloudy,20,2013-03-28 13:43:00
11:00 AM,35.6,28.4,75,29.82,15.0,North,11.5,-,N/A,,Mostly Cloudy,10,2013-03-28 14:00:00
12:00 PM,37.4,28.4,70,29.82,15.0,North,9.2,-,N/A,,Mostly Cloudy,350,2013-03-28 15:00:00
1:00 PM,37.4,28.4,70,29.82,15.0,North,9.2,-,N/A,,Mostly Cloudy,350,2013-03-28 16:00:00
1:29 PM,35.6,28.4,75,29.83,15.0,North,11.5,-,N/A,,Overcast,350,2013-03-28 16:29:00
1:34 PM,35.6,28.4,75,29.83,15.0,NNW,8.1,-,N/A,Snow,Light Snow,340,2013-03-28 16:34:00
2:00 PM,35.6,30.2,81,29.83,15.0,North,10.4,-,N/A,,Mostly Cloudy,10,2013-03-28 17:00:00
3:00 PM,35,29,70,29.83,15,NNW,10.4,,,,Partly Cloudy,340,2013-03-28 18:00:00
3:00 PM,35.6,28.4,75,29.83,15.0,NNW,9.2,-,N/A,,Mostly Cloudy,340,2013-03-28 18:00:00
4:00 PM,35.6,28.4,75,29.83,15.0,NNW,11.5,17.3,N/A,,Scattered Clouds,340,2013-03-28 19:00:00
5:00 PM,35.6,28.4,75,29.83,15.0,NNW,10.4,17.3,N/A,,Partly Cloudy,340,2013-03-28 20:00:00
6:00 PM,35.6,28.4,75,29.83,15.0,North,9.2,-,N/A,,Partly Cloudy,360,2013-03-28 21:00:00
7:00 PM,33.8,26.6,75,29.84,15.0,North,6.9,-,N/A,,Partly Cloudy,350,2013-03-28 22:00:00
8:00 PM,30.2,26.6,86,29.85,15.0,NNW,4.6,-,N/A,,Partly Cloudy,330,2013-03-28 23:00:00
9:00 PM,29,27,87,29.86,15,NW,4.6,,,,Scattered Clouds,320,2013-03-29 00:00:00
9:00 PM,28.4,26.6,93,29.85,15.0,NW,4.6,-,N/A,,Partly Cloudy,320,2013-03-29 00:00:00
10:00 PM,28.4,26.6,93,29.86,15.0,NW,3.5,-,N/A,,Partly Cloudy,310,2013-03-29 01:00:00
11:00 PM,28.4,26.6,93,29.85,15.0,WNW,5.8,-,N/A,,Partly Cloudy,300,2013-03-29 02:00:00